Location: Unspecified
(40.7945°N, 111.1337°W)
Time: 20:24:19
(UTC-06:00)

Vanguard 1 - Pass Details

Date: 30 June 2019
Orbit: 653 x 3830 km, 34.3° (Epoch: 17 July)

Event Time Altitude Azimuth Distance (km) Brightness Sun altitude
Rises 06:47:26 0° 279° (W) 7,195 14.0 7.7°
Reaches altitude 10° 06:53:08 10° 275° (W) 5,722 13.5 8.7°
Maximum altitude 07:07:22 45° 210° (SSW) 2,410 11.9 11.2°
Drops below altitude 10° 07:15:22 10° 140° (SE) 3,278 13.1 12.6°
Sets 07:17:44 0° 133° (SE) 3,962 13.6 13.0°
